Home > Weather > Gbarnga > Past weeks

Flag for Liberia Past Weather in Gbarnga, Liberia — Yesterday and Last 2 Weeks

Now
79 °F

Partly sunny.


Feels Like: 82 °F
Forecast: N/A
Wind: 7 mph from Southwest

Location: Roberts Field

Current Time: Jul 1, 2016 at 5:04:02 PM

Latest Report: Jul 1, 2016 at 4:30 PM


Visibility: N/A

Pressure: 29.95 "Hg

Humidity: 89%

Dew Point: 75 °F

Location of GbarngaLocation

Past Weather in Gbarnga — Graph

°F

Gbarnga Temperature Yesterday

Maximum temperature yesterday: 81 °F (at 3:30 PM)
Minimum temperature yesterday: 75 °F (at 3:00 AM)
Average temperature yesterday: 77 °F

High & Low Weather Summary for the Past Weeks

 TemperatureHumidityPressure
High86 °F (Jun 19, 12:30 PM)100% (Jun 19, 12:00 AM)30.04 "Hg (Jun 19, 12:00 AM)
Low72 °F (Jun 17, 5:30 AM)70% (Jun 26, 1:00 PM)29.89 "Hg (Jun 21, 4:00 PM)
Average78 °F91%29.97 "Hg
* Reported Jun 16 4:00 PM — Jul 1 4:00 PM, Gbarnga, Weather by CustomWeather, © 2016

Note: Actual official high and low records may vary slightly from our data, if they occured in-between our weather recording intervals... More about our weather records

Advertising

Gbarnga Weather History for the Previous 24 Hours

Scroll right to see more
 ConditionsComfort  
Time TempWeatherWind HumidityBarometerVisibility
4:00 PM
Fri, Jul 1
81 °FPartly sunny.9 mph84%29.95 "HgN/A
3:30 PM82 °FPartly sunny.12 mph79%29.95 "HgN/A
3:00 PM82 °FPartly sunny.14 mph79%29.98 "HgN/A
2:30 PM82 °FPartly sunny.13 mph79%29.98 "HgN/A
2:00 PM81 °FPartly sunny.10 mph84%29.98 "HgN/A
1:30 PM81 °FPartly sunny.9 mph84%30.01 "HgN/A
1:00 PM81 °FPartly sunny.6 mph84%30.01 "HgN/A
12:30 PM81 °FPartly sunny.9 mph84%30.01 "Hg5 mi
12:00 PM81 °FPartly sunny.12 mph89%30.01 "HgN/A
11:30 AM81 °FPartly sunny.8 mph89%30.04 "HgN/A
11:00 AM81 °FPartly sunny.No wind89%30.04 "HgN/A
10:30 AM79 °FPartly sunny.No wind94%30.04 "HgN/A
10:00 AM77 °FLight rain. Partly sunny.No wind94%30.04 "Hg5 mi
9:30 AM77 °FLight rain. Partly sunny.No wind94%30.04 "Hg5 mi
9:00 AM77 °FLight rain. Broken clouds.No wind94%30.04 "Hg4 mi
8:30 AM77 °FPartly sunny.No wind94%30.04 "HgN/A
8:00 AM77 °FPartly sunny.No wind94%30.01 "Hg6 mi
7:30 AM75 °FLight rain. Partly sunny.No wind94%30.01 "Hg5 mi
7:00 AM73 °FPassing clouds.No wind94%30.01 "HgN/A
6:30 AM73 °FPassing clouds.No wind94%29.98 "HgN/A
6:00 AM73 °FRain. Passing clouds.No wind94%29.98 "HgN/A
5:00 AM73 °FLight rain. Passing clouds.No wind94%29.98 "Hg4 mi
4:00 AM73 °FPassing clouds.No wind94%29.98 "HgN/A
3:30 AM73 °FPassing clouds.No wind94%29.98 "HgN/A
3:00 AM73 °FRain. Passing clouds.No wind94%29.98 "HgN/A
2:30 AM73 °FRain. Passing clouds.No wind94%29.98 "Hg5 mi
2:00 AM73 °FRain. Passing clouds.No wind94%29.98 "Hg4 mi
1:30 AM75 °FRain. Partly cloudy.No wind94%29.98 "Hg3 mi
1:00 AM75 °FRain. Partly cloudy.No wind94%30.01 "Hg2 mi
12:30 AM75 °FPassing clouds.No wind94%30.01 "Hg6 mi
12:00 AM75 °FPassing clouds.No wind94%30.01 "Hg6 mi
11:30 PM
Thu, Jun 30
75 °FPassing clouds.No wind94%30.01 "Hg5 mi
11:00 PM75 °FPassing clouds.No wind94%30.01 "Hg5 mi
10:30 PM75 °FPassing clouds.No wind94%30.01 "Hg5 mi
10:00 PM75 °FPassing clouds.No wind94%30.01 "Hg5 mi
9:30 PM75 °FPassing clouds.No wind94%30.01 "HgN/A
9:00 PM77 °FPassing clouds.6 mph94%30.01 "HgN/A
8:30 PM77 °FPassing clouds.No wind94%30.01 "HgN/A
8:00 PM77 °FPassing clouds.No wind94%29.98 "Hg6 mi
7:30 PM77 °FPartly sunny.No wind94%29.98 "HgN/A
7:00 PM77 °FPartly sunny.No wind94%29.95 "HgN/A
6:30 PM79 °FPartly sunny.7 mph89%29.95 "HgN/A
6:00 PM79 °FPartly sunny.3 mph89%29.95 "HgN/A
5:30 PM79 °FPartly sunny.5 mph89%29.95 "HgN/A
5:00 PM81 °FPartly sunny.7 mph84%29.95 "HgN/A
Weather by CustomWeather, © 2016

See weather overviewHow to use our weather pages